Other Public Products
Issued by NWS Grand Forks, ND

Home | Current Version | Previous Version | Text Only | Print | Product List | Glossary On
Versions: 1 2 3 4 5 6 7 8 9 10 11 12 13 14 15 16 17 18 19 20 21 22 23 24 25 26 27 28 29 30 31 32 33 34 35 36 37 38 39 40 41 42 43 44 45 46 47 48 49 50
476
FPUS83 KFGF 220110
OPUFGF
PRAIRIE TO PINES WEATHER ROUNDUP
NATIONAL WEATHER SERVICE EASTERN NORTH DAKOTA/GRAND FORKS ND
700 PM CST SUN JAN 21 2018

 **SATELLITE DATA USED TO AUGMENT SKY COVER AT AUTOMATED STATIONS**
 *****  WEATHER ACROSS EASTERN NORTH DAKOTA  *****

CITY           SKY/WX    TMP DP  RH WIND       PRES   REMARKS
GRAND FORKS    CLOUDY    25  22  88 N7        30.11R WCI  17
GRND FORKS AFB CLOUDY    24  22  91 NE8       30.10S WCI  15
GRND FORKS NWS NOT AVBL
BUXTON           N/A     24  24  99 N8          N/A  WCI  15
DEVILS LAKE    CLOUDY    22  20  92 SE3       30.08S FOG
FARGO          CLOUDY    26  23  88 N12       30.08S WCI  16
WAHPETON ARPT  CLOUDY    28  23  80 N8        30.05R WCI  20
$$

 *****  WEATHER ACROSS CENTRAL AND WESTERN NORTH DAKOTA  *****

CITY           SKY/WX    TMP DP  RH WIND       PRES   REMARKS
JAMESTOWN      CLOUDY    26  24  92 CALM      30.06R
BISMARCK       FAIR      18  16  92 E6        30.05R WCI  10
MINOT          FAIR      25  19  78 SE3       30.01S
MINOT AFB      FAIR      18  15  88 S5        29.99S WCI  11
GARRISON         N/A     22  18  85 CALM      30.01S
WILLISTON      FAIR      26  19  74 W3        30.01R
DICKINSON      FAIR      23  19  85 W9        29.99R WCI  13
HETTINGER      FAIR      26  21  81 CALM      30.02R
$$

 *****  OTHER OBSERVATIONS NORTHEAST NORTH DAKOTA  *****

CITY           SKY/WX    TMP DP  RH WIND       PRES   REMARKS
WALHALLA       FAIR      23  23 100 CALM      30.11F
LANGDON        NOT AVBL
CAVALIER         N/A     21  21 100 CALM      30.12S
GRAFTON        NOT AVBL
CANDO          FOG       21  21 100 S8        30.09F VSB 1/2 WCI  12
FORT TOTTEN    NOT AVBL
ROLLA          FOG       21  21 100 S6        30.05S VSB 1/4 WCI  14
RUGBY          NOT AVBL
 ***** THE ABOVE OBSERVATIONS ARE NON NWS ARE NOT QUALITY
        CONTROLLED AND MAY MIS-REPORT RAIN FOR SNOW...
$$

 *****  OTHER OBSERVATIONS SOUTHEAST NORTH DAKOTA *****

CITY           SKY/WX    TMP DP  RH WIND       PRES   REMARKS
COOPERSTOWN    CLOUDY    21  21 100 N5        30.08R WCI  15
VALLEY CITY    NOT AVBL
OAKES            N/A     25  25 100 N6        30.07R WCI  18
GWINNER          N/A     27  25  93 N7        30.06R WCI  19
SHEYENNE NWR     N/A     25  25 100 NE7       29.95S WCI  17
BUFFALO          N/A     23  21  93 SW5         N/A  WCI  17
WYNDMERE       NOT AVBL
 ***** THE ABOVE OBSERVATIONS ARE NON NWS ARE NOT QUALITY
       CONTROLLED AND MAY MIS-REPORT RAIN FOR SNOW...
$$

  *****  WEATHER ACROSS NORTHERN MINNESOTA  *****

CITY           SKY/WX    TMP DP  RH WIND       PRES   REMARKS
FLAG ISLAND    CLOUDY    25  21  86 N3        30.10R
WARROAD        CLOUDY    25  21  86 CALM      30.11S
ROSEAU         CLOUDY    25  21  86 N3        30.11S
HALLOCK        CLOUDY    21  19  93 N3        30.12S
THF RVR FALLS  CLOUDY    24  22  91 NE8       30.10R WCI  15
HALSTAD        NOT AVBL
FOSSTON        CLOUDY    21  21 100 N9        30.08R WCI  11
BAUDETTE       CLOUDY    25  23  92 N5        30.08S WCI  19
WASKISH        CLOUDY    27  25  93 CALM      30.07S
CROOKSTON      FAIR      25  23  93 N6        30.11S WCI  18
$$
  *****  WEATHER ACROSS CENTRAL AND WEST MINNESOTA  *****

CITY           SKY/WX    TMP DP  RH WIND       PRES   REMARKS
BEMIDJI        CLOUDY    24  23  97 N5        30.05R FOG     WCI  18
PARK RAPIDS    CLOUDY    26  22  84 N7        30.02R WCI  18
WADENA         FAIR      27  23  86 N7        30.01S WCI  19
DETROIT LAKES  CLOUDY    27  25  93 N9        30.04R WCI  17
MOORHEAD       CLOUDY    25  21  86 N12       30.08R WCI  14
FERGUS FALLS   FAIR      27  25  93 N5        30.03R WCI  21
ELBOW LAKE     MOCLDY    29  27  90 N6        30.01S WCI  23
MORRIS MN      MOCLDY    30  28  93 NW7       30.00S WCI  23
STAPLES        FAIR      28  25  86 N6        30.01R WCI  22
WHEATON        FAIR      27  25  93 N9        30.06R WCI  17
$$
  *****  WEATHER ELSEWHERE ACROSS MINNESOTA  *****

CITY           SKY/WX    TMP DP  RH WIND       PRES   REMARKS
DULUTH         FOG       29  28  96 E12       30.02R VSB 1/4 WCI  19
INTRNTL FALLS  CLOUDY    26  24  92 N6        30.07S FOG     WCI  19
ELY            NOT AVBL
CLOQUET        MIX PCPN  28  28 100 E9        30.02R VSB 1/4 WCI  20
BRAINERD       MOCLDY    31  24  75 N8        30.01R WCI  23
HIBBING        CLOUDY    26  24  92 NE5       30.03R WCI  20
ALEXANDRIA     CLOUDY    31  26  82 NE5       29.99S
SAINT CLOUD    CLOUDY    33  29  85 N5        29.98R
MINNEAPOLIS    CLOUDY    36  30  79 N9G22     29.95S
$$

  *****  WEATHER ACROSS SOUTH DAKOTA  *****

CITY           SKY/WX    TMP DP  RH WIND       PRES   REMARKS
SIOUX FALLS    CLOUDY    36  31  82 NE16      29.89R
BROOKINGS      NOT AVBL
WATERTOWN      CLOUDY    29  26  89 N14       29.95F WCI  18
HURON          CLOUDY    31  29  92 N15       29.97S WCI  20
SISSETON         N/A     28  25  88 N12       30.03R WCI  18
ABERDEEN       MOCLDY    29  25  85 N9        30.04R WCI  20
MITCHELL       CLOUDY    33  31  92 N15       29.93F WCI  23
PIERRE         FAIR      30  25  81 N9        30.01R WCI  22
MOBRIDGE       FAIR      28  23  81 N5        30.01R WCI  23
RAPID CITY     CLOUDY    31  23  72 N13       30.00R WCI  21
$$

  *****  SOME WEATHER IN NEARBY STATES *****

CITY           SKY/WX    TMP DP  RH WIND       PRES   REMARKS
GLASGOW MT     FAIR      18  15  88 CALM      30.01R
GREAT FALLS MT FAIR      32  15  49 SW22G35   29.95S WCI  19
CHEYENNE WY    LGT SNOW  20  17  88 N20G29    29.92R FOG     WCI   4
SCOTTSBLUFF NE LGT SNOW  28  25  88 NW21G28   29.97S FOG     WCI  15
OMAHA NE       DRIZZLE   38  37  97 N17       29.71F FOG
DES MOINES IA  FOG       41  40  96 NE12      29.74F VSB 1/8
DAVENPORT IA   FOG       41  40  96 E9        29.83F VSB 1/4
CHICAGO IL     LGT RAIN  41  40  96 E6        29.90F VSB 1/4
EAU CLAIRE WI  CLOUDY    37  29  72 NE3       29.94S
LA CROSSE WI   CLOUDY    37  32  82 CALM      29.90F HAZE
$$

  *****  SOME NATIONAL WEATHER *****

CITY           SKY/WX    TMP DP  RH WIND       PRES   REMARKS
LA GUARDIA NY  CLOUDY    47  33  58 S7        30.18R
RALEIGH NC     FAIR      49  42  77 CALM      30.22R
ATLANTA GA     FAIR      58  44  60 SE3       30.17R
NEW ORLEANS LA MOCLDY    64  60  87 SE12      30.05S
OKLAHOMA CITY  CLOUDY    64  12  13 W25G32    29.66R
ALBUQUERQUE NM MOCLDY    35  17  47 NW15      29.99R
SALT LAKE CITY FAIR      32  21  64 CALM      30.26R
LOS ANGELES CA FAIR      58  36  43 W13       30.27R
BOISE ID       MOCLDY    39  24  55 SE12      30.17S
SEATTLE WA     CLOUDY    42  38  85 S15       29.92F
$$

*** WEATHER ACROSS MANITOBA...SASKATCHEWAN AND ONTARIO ***
                ***ONTARIO***

CITY           SKY/WX    TMP DP  RH WIND       PRES   REMARKS
GERALDTON      FLURRIES   5  -2  72 NE9       30.22R WCI  -9
THUNDER BAY    FRZ DRZL  16  16 100 NE8       30.16R WCI   5
SIOUX LOOKOUT  FRZ DRZL  10   7  85 E3        30.15R
TORONTO        FOG       36  34  93 SE5       30.06F VSB 3/4
BIG TROUT LK   MOCLDY   -18 -22  83 CALM      30.37R
PICKLE LAKE    FLURRIES   1  -4  78 E8        30.23S WCI -12
DRYDEN         CLOUDY    12  12 100 NE9       30.11R WCI   0
KENORA         CLOUDY    19  16  86 NE5       30.10R WCI  13
$$
                *** MANITOBA***

CITY           SKY/WX    TMP DP  RH WIND       PRES   REMARKS
BRANDON        CLOUDY    21  18  86 E8        30.06S WCI  12
DAUPHIN        FLURRIES  16  14  93 E9        30.10R WCI   4
ISLAND LAKE    LGT SNOW   0  -6  78 E13       30.28R WCI -18
PILOT MOUND      N/A     23  21  93 S6          N/A  WCI  16
THE PAS        FLURRIES   3  -2  78 E7        30.17R WCI  -9
THOMPSON       FLURRIES  -8 -13  77 E3        30.29S
WINNIPEG       CLOUDY    18  12  79 E5        30.13F WCI  11
LYNN LAKE      CLEAR    -11 -15  84 E6        30.22R WCI -25
CHURCHILL      PTCLDY   -22 -27  76 W6        30.52R WCI -38
GILLAM         PTCLDY   -17 -22  76 E5        30.42S WCI -29
$$
                ***SASKATCHEWAN***

CITY           SKY/WX    TMP DP  RH WIND       PRES   REMARKS
ESTEVAN        PTCLDY    16  14  93 SW6       29.98R WCI   7
KINDERSLEY     PTCLDY    21  18  86 SE12      29.86S WCI   9
LLOYDMINSTER   CLOUDY    21  21 100 SE17      29.86S FOG     WCI   7
PRINCE ALBERT  CLOUDY    18  12  79 E9        30.03S WCI   6
REGINA         CLEAR     18  16  93 SE5       29.96S WCI  11
YORKTON        CLEAR     23  21  93 SE3       29.98R



USA.gov is the U.S. government's official web portal to all federal, state and local government web resources and services.